Home > Weather > Camagüey > Past weeks

Flag for Cuba Past Weather in Camagüey, Cuba — Yesterday and Last 2 Weeks

Now
75 °F

Passing clouds.


Feels Like: 75 °F
Forecast: 71 / 89 °F
Wind: 5 mph from Northeast

Location: Camaguey Aeropuerto

Current Time: May 27, 2016 at 10:10:46 PM

Latest Report: May 27, 2016 at 8:51 PM


Visibility: 6 mi

Pressure: 29.95 "Hg

Humidity: 83%

Dew Point: 70 °F

Location of CamagüeyLocation

Past Weather in Camagüey — Graph

°F

Camagüey Temperature Yesterday

Maximum temperature yesterday: 86 °F (at 12:50 PM)
Minimum temperature yesterday: 70 °F (at 12:51 AM)
Average temperature yesterday: 77 °F

High & Low Weather Summary for the Past Weeks

 TemperatureHumidityPressure
High93 °F (May 19, 3:50 PM)94% (May 13, 2:50 AM)30.12 "Hg (May 13, 2:50 AM)
Low68 °F (May 22, 7:50 PM)38% (May 27, 3:50 PM)29.89 "Hg (May 22, 4:51 PM)
Average80 °F76%30.03 "Hg
* Reported May 12 8:50 PM — May 27 8:51 PM, Camagüey, Weather by CustomWeather, © 2016

Note: Actual official high and low records may vary slightly from our data, if they occured in-between our weather recording intervals... More about our weather records

Advertising

Camagüey Weather History for the Previous 24 Hours

Scroll right to see more
 ConditionsComfort  
Time TempWeatherWind HumidityBarometerVisibility
8:51 PM
Fri, May 27
75 °FPassing clouds.5 mph83%29.95 "Hg6 mi
7:50 PM75 °FBroken clouds.3 mph78%29.92 "Hg6 mi
6:53 PM73 °FBroken clouds.7 mph83%29.92 "Hg6 mi
6:01 PM73 °FThunderstorms. Partly sunny.13 mph89%29.92 "Hg4 mi
4:50 PM86 °FPartly sunny.7 mph59%29.92 "Hg6 mi
3:50 PM90 °FScattered clouds.3 mph38%29.89 "Hg6 mi
2:51 PM90 °FScattered clouds.5 mph43%29.92 "Hg6 mi
1:50 PM88 °FScattered clouds.5 mph46%29.95 "Hg6 mi
12:50 PM86 °FPassing clouds.3 mph55%29.98 "Hg6 mi
11:50 AM86 °FPassing clouds.3 mph49%29.98 "Hg6 mi
10:50 AM82 °FPassing clouds.6 mph62%29.98 "Hg6 mi
9:50 AM79 °FPassing clouds.6 mph74%29.98 "Hg6 mi
8:50 AM75 °FPassing clouds.7 mph89%29.98 "Hg6 mi
7:50 AM73 °FPassing clouds.3 mph94%29.95 "Hg6 mi
6:50 AM70 °FFog.3 mph94%29.95 "Hg0 mi
5:51 AM70 °FFog.3 mph94%29.95 "Hg3 mi
4:50 AM70 °FFog.5 mph94%29.95 "Hg4 mi
3:50 AM70 °FClear.2 mph94%29.95 "Hg4 mi
2:50 AM70 °FClear.3 mph94%29.98 "Hg4 mi
1:50 AM70 °FClear.6 mph94%29.98 "Hg6 mi
12:50 AM72 °FPassing clouds.5 mph88%29.98 "Hg6 mi
11:50 PM
Thu, May 26
72 °FPassing clouds.5 mph88%30.01 "Hg6 mi
10:50 PM73 °FPassing clouds.9 mph89%30.01 "Hg6 mi
Weather by CustomWeather, © 2016

See weather overviewHow to use our weather pages